Address 0x383ae84822c4b5e5b2fa85f04bd85b2fe9145733 4

My Name Tag:
Not Available

Txn Hash Method
Block
From
To
Value [Txn Fee]
0x8fb8fb9ce790ad97be10af7ca574dbdb9ec15e2e9d53bd9ebd188f3ae544b09cBatch Open105768962021-07-14 6:31:29189 days 48 mins ago0x383ae84822c4b5e5b2fa85f04bd85b2fe9145733OUT 0x06f9277ec4371eeff23e4596fc9094772c73f7380 BNB0.00056477
0x8f12285617d3234cea377bf2a706e3d8600d24cf70f41c9c23d1e30ed6180052Buy105765622021-07-14 6:14:47189 days 1 hr ago0x383ae84822c4b5e5b2fa85f04bd85b2fe9145733OUT 0xf0389a58655c3b580c1234fcdae273e861cbab0f0 BNB0.00244836
0xf348994ed7a59f7de0910fb97b586bab591a3e9f7b1725aae3fbc94a90e75109Buy105736172021-07-14 3:47:32189 days 3 hrs ago0x383ae84822c4b5e5b2fa85f04bd85b2fe9145733OUT 0xf0389a58655c3b580c1234fcdae273e861cbab0f0 BNB0.00244836
0xb92eda33e7627e8355ff003309217e1f0801601fc1bfe55200a199bef40d3e5eBuy105736032021-07-14 3:46:50189 days 3 hrs ago0x383ae84822c4b5e5b2fa85f04bd85b2fe9145733OUT 0xf0389a58655c3b580c1234fcdae273e861cbab0f0 BNB0.00244836
0xdedd5dd930bf9151799371c14f5c85fe7115b88d737830e1ac01cc42ae93d4daBuy105735742021-07-14 3:45:23189 days 3 hrs ago0x383ae84822c4b5e5b2fa85f04bd85b2fe9145733OUT 0x95213ef22aaf82ebbda01ebe236c7586e7a0512e0 BNB0.00256611
0xbc7c07bfac9f247ad9a522dc3694350d022e3afb9349292dfcf89eb6bff01650Burn105735292021-07-14 3:43:08189 days 3 hrs ago0x383ae84822c4b5e5b2fa85f04bd85b2fe9145733OUT 0x1648fefadf21bd70d32fedbbdeced295ebf6d68e0 BNB0.00039313
0x6e6f1deb7bea8ba9e5f712854148f224663e21a81976154db13bcdef001502acBatch Open105735292021-07-14 3:43:08189 days 3 hrs ago0x383ae84822c4b5e5b2fa85f04bd85b2fe9145733OUT 0x06f9277ec4371eeff23e4596fc9094772c73f7380 BNB0.00022682
0xe03f91793d2c9d7a138d6d0dc7ebc3838ae85e925c94eea9d066681ca48520bcBatch Open105733712021-07-14 3:35:14189 days 3 hrs ago0x383ae84822c4b5e5b2fa85f04bd85b2fe9145733OUT 0x06f9277ec4371eeff23e4596fc9094772c73f7380 BNB0.00022682
0x151a3d2faf4d879b9dd87473cdddd0d3109ed71846ed9e6d43921bc6ab6e8806Batch Open105733672021-07-14 3:35:02189 days 3 hrs ago0x383ae84822c4b5e5b2fa85f04bd85b2fe9145733OUT 0x06f9277ec4371eeff23e4596fc9094772c73f7380 BNB0.00107076
0xfbadd3c5abc99e7c7684891164c5b70dd17b51f1aa722d7f4656f404d39f358cBuy105733552021-07-14 3:34:26189 days 3 hrs ago0x383ae84822c4b5e5b2fa85f04bd85b2fe9145733OUT 0xf0389a58655c3b580c1234fcdae273e861cbab0f0 BNB0.00240636
0xb51ccabcaf80fbb289f49bf08688f308d17ea7b229da82aae598dc38525d9b2eBatch Open105733372021-07-14 3:33:32189 days 3 hrs ago0x383ae84822c4b5e5b2fa85f04bd85b2fe9145733OUT 0x06f9277ec4371eeff23e4596fc9094772c73f7380 BNB0.00022682
0xae7a4c48809edd19896e48bceb210190c2ddc863274cee5c7b6a77d2ae475377Batch Open105733332021-07-14 3:33:20189 days 3 hrs ago0x383ae84822c4b5e5b2fa85f04bd85b2fe9145733OUT 0x06f9277ec4371eeff23e4596fc9094772c73f7380 BNB0.00181867
0xd8cd15b1bea5f8e57cdbb16fbfa99a1e6f254e44997112b3dd4e27b501cb9ceeBuy105733262021-07-14 3:32:59189 days 3 hrs ago0x383ae84822c4b5e5b2fa85f04bd85b2fe9145733OUT 0x95213ef22aaf82ebbda01ebe236c7586e7a0512e0 BNB0.00256611
0xa605bd7f0f8b8701615fc0f5c545440dc991e4920f7cc1f7827998ce68303b85Burn For Slot98075862021-06-17 8:54:58215 days 22 hrs ago0x383ae84822c4b5e5b2fa85f04bd85b2fe9145733OUT 0xd151cea40440c15f0b32dd0900704ee51139d9610 BNB0.00226462
0xb68940466f3fd8eb4a6364082140210aa0e7ff18a5cd05776915bb77b698b60eBuy91722582021-05-26 6:33:04238 days 46 mins ago0x383ae84822c4b5e5b2fa85f04bd85b2fe9145733OUT 0x26d346aa7b971f9abaf865acd200cc208f6a79b90 BNB0.00124301
0x1cf6e7c0f726c3791c9fa461e7674ffb48b348323a1b7fcd06cfffdb2a6575b8Approve91722482021-05-26 6:32:34238 days 47 mins ago0x383ae84822c4b5e5b2fa85f04bd85b2fe9145733OUT 0x449d6da0ad2b1f283fef120bc12d9d081718b6c10 BNB0.00044296
0x069f123c29efec7e5c3bd3498a976fb3869608255177af257a2ffe0d0b094079Buy91722362021-05-26 6:31:58238 days 47 mins ago0x383ae84822c4b5e5b2fa85f04bd85b2fe9145733OUT 0x26d346aa7b971f9abaf865acd200cc208f6a79b90 BNB0.00124301
0xe513d8bdcc64af1a530f6f689cb3b7c00b1c92de19924d97fca2482216bcf5edApprove91722302021-05-26 6:31:40238 days 47 mins ago0x383ae84822c4b5e5b2fa85f04bd85b2fe9145733OUT 0x734e01e980350c7312d41a8ef117b5e56087be1a0 BNB0.00044296
0xe90070bc0fd48d6031666a6e9a6c45cd8a57657089a547b4b063172e50042acaBatch Open91719432021-05-26 6:17:19238 days 1 hr ago0x383ae84822c4b5e5b2fa85f04bd85b2fe9145733OUT 0x06f9277ec4371eeff23e4596fc9094772c73f7380 BNB0.00125236
0xf0e835f066db68ec4a2336dce481f857588388fe26e1f01a62a0728f1c9e851eBuy91717302021-05-26 6:06:40238 days 1 hr ago0x383ae84822c4b5e5b2fa85f04bd85b2fe9145733OUT 0x01e1bc42e915a2f9fc1e635dabce31d29ea936a40 BNB0.00236057
0x4bd17ef13f27b7674c438190e2a03fc9733efabcf263a7ba12716808bab71e07Approve91716942021-05-26 6:04:52238 days 1 hr ago0x383ae84822c4b5e5b2fa85f04bd85b2fe9145733OUT 0x449d6da0ad2b1f283fef120bc12d9d081718b6c10 BNB0.00044308
0xf94307540fae21b647844b9cf43f10c4fe60dea1a6365d3cda98d2c2e96e6281Batch Open91716392021-05-26 6:02:07238 days 1 hr ago0x383ae84822c4b5e5b2fa85f04bd85b2fe9145733OUT 0x06f9277ec4371eeff23e4596fc9094772c73f7380 BNB0.0002267
0xc54a6de9c8e35799a245c8e8da6fe3d1459bf50c9861b8089ef566654b529c37Batch Open91716112021-05-26 6:00:43238 days 1 hr ago0x383ae84822c4b5e5b2fa85f04bd85b2fe9145733OUT 0x06f9277ec4371eeff23e4596fc9094772c73f7380 BNB0.03684966
0x9fd204832ceae5ba486b88e64ad721b9afdeeed62e0b71b9d6602ae371f83fc1Buy91716042021-05-26 6:00:22238 days 1 hr ago0x383ae84822c4b5e5b2fa85f04bd85b2fe9145733OUT 0x95213ef22aaf82ebbda01ebe236c7586e7a0512e0 BNB0.00233519
0x7ccbfa2dd80d8333dd8a98dfef51953fb6f8fb50ce6fc986f886b454f24751afApprove91715982021-05-26 6:00:04238 days 1 hr ago0x383ae84822c4b5e5b2fa85f04bd85b2fe9145733OUT 0x449d6da0ad2b1f283fef120bc12d9d081718b6c10 BNB0.00025108
[ Download CSV Export 
Parent Txn Hash Block From To Value
Loading

Contract Name:
0 BNB

Compiler Version
0

Optimization Enabled:
0 BNB

Other Settings:
-NA-
Block Transaction Gas Used Reward
Age Block Fee Address BC Fee Address Voting Power Jailed Incoming
Block Uncle Number Difficulty Gas Used Reward
Loading